Wind_Speed
17 16 16 16 15 14 13 11 8 7 6 6 8 9 8 9 9 9 7 6 5 5 5 6 6 5 4 4 5 5 6 7 7 7 8 8 9 9 10 11 12 13 14 15 16 17 17 18 18
18 17 17 17 16 16 15 12 8 8 7 6 8 9 8 8 8 8 7 6 5 5 5 5 5 5 5 5 5 5 6 6 6 7 7 7 8 8 10 11 12 14 15 16 17 18 18 18 19
19 19 19 18 17 16 16 13 10 8 6 5 8 9 8 8 7 7 7 6 6 6 5 5 5 5 5 6 6 5 5 6 6 6 7 7 8 9 10 11 12 14 15 16 16 17 17 17 17
18 19 19 19 17 17 16 14 11 8 6 4 6 8 8 9 8 6 6 7 8 7 7 7 7 6 6 6 7 6 6 6 6 6 7 7 8 9 10 11 12 13 13 14 15 15 15 14 14
18 19 19 19 19 17 17 15 11 8 4 2 4 7 9 9 8 7 7 9 9 9 9 8 8 8 8 7 7 7 7 6 6 7 7 7 8 9 9 10 11 12 12 13 14 15 15 15 14
17 18 19 21 22 20 20 16 11 6 3 2 4 7 9 8 8 8 9 10 11 10 10 10 9 9 9 8 8 7 7 7 7 6 6 7 8 9 10 11 12 13 13 15 16 17 17 17 16
16 18 20 24 26 24 22 16 11 7 5 4 6 7 8 8 8 10 11 12 13 12 11 11 11 10 10 10 9 8 7 7 7 7 7 7 8 9 10 11 12 14 15 16 17 18 18 18 17
16 19 22 27 28 26 22 17 13 10 7 7 7 6 7 7 9 10 12 13 14 13 13 13 13 12 12 11 10 9 9 8 8 8 8 8 9 9 10 10 11 13 14 15 16 17 17 17 16
17 21 25 29 30 28 23 19 15 11 8 8 6 4 5 6 8 10 12 14 14 14 15 15 15 14 14 13 12 11 10 10 10 9 9 9 9 9 9 9 10 11 12 13 14 15 15 15 15
18 24 28 30 31 29 25 20 17 12 9 8 6 2 2 5 7 8 10 12 13 14 15 16 16 16 16 15 14 13 12 11 11 10 9 9 8 8 8 8 8 9 9 11 12 13 13 14 15
20 27 29 30 29 28 26 22 18 13 10 8 6 3 2 4 6 7 9 10 12 13 15 17 17 17 17 16 15 14 13 12 11 10 10 9 8 8 7 7 8 9 9 10 12 13 14 15 16
24 30 30 29 28 27 26 23 19 15 12 10 8 6 4 5 7 8 9 10 12 14 15 16 19 18 16 16 16 16 16 15 14 12 11 9 9 8 8 8 8 9 10 12 13 15 16 17 18
28 32 31 30 28 28 26 24 20 17 16 14 11 8 6 7 9 9 10 11 12 14 16 18 20 18 18 17 18 18 18 18 16 14 13 11 10 10 9 9 10 11 12 13 15 17 18 20 21
32 34 32 31 30 28 28 25 22 19 18 17 15 12 10 11 12 12 13 13 14 15 17 19 20 20 20 20 20 20 19 19 18 17 15 14 13 13 12 13 14 14 15 17 18 20 22 23 25
33 34 33 32 32 31 29 27 24 21 20 18 18 16 15 15 16 15 15 15 15 16 19 20 21 22 23 23 23 22 20 21 22 21 19 19 18 17 17 17 18 18 19 20 22 24 25 27 29
33 34 35 34 34 33 31 29 27 24 23 22 21 20 20 20 19 18 17 17 18 18 20 22 23 25 25 25 25 25 25 25 25 26 25 24 23 22 22 22 23 23 23 24 25 26 28 30 31
33 35 35 36 35 35 32 29 29 27 26 26 26 25 24 24 22 20 19 19 20 20 22 24 26 28 29 28 28 29 30 29 30 30 30 29 28 28 27 27 27 28 28 28 29 30 31 33 34
34 35 36 38 38 36 35 30 29 29 29 30 30 30 29 27 25 22 20 20 21 22 24 26 28 31 32 33 33 33 33 35 35 34 34 34 33 32 31 31 31 32 32 32 32 32 33 34 35
36 37 38 38 40 40 39 35 31 32 32 33 33 33 32 30 27 25 23 23 23 23 25 27 29 32 34 35 36 37 38 39 38 36 34 35 35 34 34 34 35 34 34 33 34 33 34 35 36
37 38 37 38 41 44 44 41 36 34 36 36 35 35 33 32 30 28 27 26 25 25 26 28 30 33 35 37 39 40 41 40 39 37 35 33 33 34 35 34 34 34 33 33 32 33 35 38 39
37 37 36 37 41 44 45 45 41 38 38 37 36 36 35 33 31 30 30 29 28 27 28 31 33 35 37 39 41 42 42 41 39 33 31 30 31 32 31 30 32 32 32 34 36 37 39 41 42
34 32 34 37 39 42 44 45 42 40 40 39 38 37 37 35 33 32 32 32 31 31 33 35 37 39 41 42 43 43 43 40 34 31 29 27 27 28 28 29 31 32 35 38 39 41 43 45 46
30 30 33 36 38 40 41 43 40 39 39 38 39 39 39 37 35 34 34 34 34 36 38 39 41 43 44 44 44 45 42 38 33 30 29 27 28 29 29 30 33 36 39 42 44 45 47 48 50
31 33 35 36 37 38 36 39 40 37 37 37 38 39 38 37 36 34 34 36 37 39 41 43 44 44 45 46 46 44 39 37 35 33 31 30 30 31 33 35 38 40 43 45 48 50 51 52 54
34 35 35 36 36 36 32 36 38 36 36 37 38 38 38 37 37 37 37 38 39 40 41 42 42 43 43 43 43 42 38 38 37 35 32 31 32 34 37 39 42 44 47 49 51 52 54 57 58
33 34 34 35 34 32 31 34 34 34 34 34 34 34 34 34 34 35 36 36 37 38 38 38 39 40 41 42 42 41 41 39 38 35 33 34 36 38 40 42 45 47 50 53 54 56 59 61 62
31 32 31 33 32 31 31 32 31 30 30 30 31 31 31 32 32 32 32 32 33 33 34 35 36 39 41 42 43 43 41 40 40 37 37 39 40 42 44 46 49 52 54 57 58 61 63 65 67
32 32 32 32 31 30 31 29 28 28 29 29 30 30 31 31 31 31 31 31 31 33 34 36 38 40 42 44 45 44 42 42 41 40 41 42 44 46 48 50 53 56 59 61 62 64 66 68 68
34 34 34 33 31 29 29 28 27 28 28 29 30 31 32 31 31 31 31 32 33 35 37 40 42 44 45 46 46 46 45 45 45 44 45 46 48 50 52 55 57 60 62 64 65 66 67 67 67
35 35 34 33 32 30 29 29 29 28 29 30 31 31 31 32 32 32 32 34 36 38 40 43 45 46 48 48 48 48 48 47 47 47 48 49 51 53 55 57 59 62 63 65 65 65 65 64 63
Wind_Direction
217 212 210 206 204 209 221 239 262 283 301 330 349 353 352 349 348 347 346 341 333 331 327 316 305 296 298 308 319 323 322 319 312 305 301 296 292 290 289 289 289 290 290 290 290 289 290 290 290
220 214 211 208 208 210 223 239 260 276 295 327 344 348 352 355 357 355 349 350 352 349 337 319 309 308 310 317 322 326 325 322 316 311 306 301 299 296 295 293 291 291 292 292 292 291 291 290 288
227 219 213 207 206 213 225 239 257 278 293 326 344 349 3 10 8 359 358 6 10 8 355 342 333 328 324 325 327 326 326 324 319 314 307 303 302 301 300 297 296 295 295 295 295 295 295 295 294
232 224 215 206 203 212 227 240 253 268 289 319 348 1 20 21 16 10 14 18 20 16 5 359 354 348 341 337 337 333 329 328 325 320 315 309 305 302 301 300 300 300 300 300 300 301 302 303 302
233 226 215 200 198 211 225 237 241 257 266 321 12 25 34 33 30 29 30 29 23 18 10 3 357 353 347 341 339 337 333 329 325 320 316 313 310 308 307 307 307 306 305 303 302 301 302 302 301
229 223 209 193 195 209 222 230 235 231 206 128 59 50 41 43 40 37 36 31 24 18 10 5 2 360 354 347 342 337 333 329 324 320 317 316 314 311 308 307 307 305 304 302 300 298 298 299 299
223 212 197 189 194 207 219 222 219 213 192 125 87 61 48 40 40 39 36 30 25 21 15 12 8 3 357 351 344 338 333 329 323 319 316 313 310 306 303 301 300 299 298 297 296 296 297 298 298
215 202 189 188 195 207 213 214 213 208 176 135 102 63 51 41 39 38 34 31 29 27 24 21 15 10 3 355 345 335 326 319 314 311 309 306 303 301 299 298 297 295 294 294 294 295 296 297 297
209 196 188 190 197 206 211 212 214 207 173 141 110 71 50 34 27 26 27 27 27 25 23 20 16 11 5 356 346 334 321 314 308 304 300 300 299 297 296 296 295 294 294 295 295 296 297 299 298
206 192 192 197 202 208 212 213 214 207 177 151 133 112 26 16 8 10 19 20 18 15 13 9 5 3 359 353 344 332 318 309 304 299 294 292 292 294 296 300 299 299 299 300 299 300 301 302 301
203 197 201 201 206 211 215 217 218 212 194 174 168 192 294 348 346 351 359 2 3 0 358 357 355 352 350 349 346 335 323 312 305 298 293 291 291 295 300 301 302 301 303 303 303 303 301 300 298
203 205 207 207 211 214 219 221 221 222 217 207 199 207 264 303 315 326 338 343 347 349 349 348 348 346 345 344 342 335 327 319 309 302 296 294 294 296 299 301 302 303 305 305 304 302 301 300 299
205 209 211 214 215 219 224 227 229 230 232 229 223 221 244 278 294 305 316 327 333 337 339 340 342 341 340 338 335 331 326 321 314 306 300 297 294 296 298 298 298 300 301 302 303 302 303 302 301
207 214 218 219 219 222 227 233 237 240 246 242 238 240 251 270 282 289 300 309 321 327 330 334 334 331 329 329 328 326 321 317 312 305 299 293 290 291 292 293 294 295 296 298 299 300 300 301 301
214 219 223 224 224 226 230 234 241 249 258 257 253 252 257 267 277 284 293 303 314 322 326 328 328 325 323 323 322 320 314 311 306 299 295 289 285 283 284 285 288 291 292 294 297 298 299 299 298
220 222 224 226 227 230 231 232 242 252 260 261 258 257 260 265 272 278 287 298 307 315 320 321 322 321 320 319 318 317 313 306 302 294 288 286 282 280 281 283 285 286 287 290 294 296 298 299 299
225 226 227 228 232 234 236 234 240 251 258 261 259 258 260 264 270 276 283 291 299 307 311 315 317 319 318 316 314 312 309 303 296 289 281 279 277 276 277 279 282 284 286 288 292 295 297 300 300
229 230 230 229 233 236 240 242 240 248 255 259 261 262 264 266 269 273 278 284 291 299 305 309 312 316 314 312 309 307 303 297 290 281 274 272 271 271 274 277 279 281 283 286 290 294 296 300 301
232 232 232 231 233 238 244 247 246 248 254 259 261 263 265 267 267 268 272 278 284 292 299 303 307 309 308 306 305 300 296 292 286 278 273 270 268 268 271 274 276 279 283 285 289 294 299 302 302
233 234 233 232 233 237 243 248 249 250 254 257 261 263 264 266 265 266 270 274 280 287 293 297 300 301 301 300 299 298 294 291 289 285 277 274 270 268 269 274 278 282 286 290 293 299 302 303 301
233 235 234 233 233 238 242 246 249 251 252 255 260 263 264 265 264 264 267 272 277 283 288 291 294 294 295 294 293 291 289 289 291 293 295 284 278 272 275 282 285 288 289 294 299 303 303 302 301
235 236 236 235 235 237 242 246 247 250 250 253 256 260 262 263 263 263 266 270 276 280 283 286 290 291 290 290 288 286 288 289 297 301 302 299 291 283 286 291 292 294 298 301 303 303 302 302 301
234 233 234 235 237 238 242 248 249 249 250 252 254 258 261 262 263 264 267 271 275 279 282 285 287 287 287 287 284 283 285 291 302 311 310 304 297 292 292 296 298 300 301 302 302 302 302 301 301
229 230 233 235 239 241 242 248 252 251 252 252 254 258 261 263 265 266 269 272 276 279 281 281 283 284 284 284 285 285 289 302 310 312 311 306 302 298 296 299 300 301 301 300 301 301 301 301 301
226 227 231 235 239 241 240 245 251 253 253 254 256 257 260 262 264 266 268 271 273 275 276 278 280 282 284 287 291 297 304 311 312 307 306 304 301 299 299 300 300 300 300 299 300 300 300 300 300
224 227 231 235 238 239 238 243 248 251 252 253 255 258 260 262 265 267 268 269 271 273 275 276 279 282 288 293 299 303 308 311 311 306 303 302 300 299 299 299 299 298 298 298 299 298 298 298 299
220 225 230 237 239 239 239 243 245 247 249 251 254 257 259 262 265 267 268 270 272 274 277 280 283 285 290 295 299 303 306 308 308 305 304 303 301 299 298 298 298 298 297 297 297 297 297 298 299
219 222 226 234 238 238 239 242 245 247 249 252 255 257 260 263 265 268 271 273 277 280 284 288 290 292 294 297 300 302 304 306 306 305 304 303 301 300 299 298 298 297 296 296 296 296 297 298 299
218 223 229 235 239 241 243 245 248 252 255 257 258 260 263 266 269 272 275 279 283 286 289 292 294 296 297 298 299 300 302 303 303 303 302 301 300 298 297 296 296 295 295 295 296 296 297 298 299
224 229 232 237 240 243 247 250 251 257 260 261 262 263 265 268 271 275 279 283 286 288 291 293 295 297 296 296 297 297 299 300 300 300 300 299 297 297 296 295 295 295 295 295 296 297 298 299 300
Height
5877 5880 5882 5884 5887 5888 5888 5890 5891 5892 5892 5892 5891 5890 5889 5889 5889 5891 5889 5887 5886 5885 5885 5885 5885 5885 5885 5885 5885 5885 5885 5885 5886 5886 5887 5888 5888 5889 5890 5890 5891 5891 5892 5892 5893 5893 5894 5894 5894
5875 5878 5880 5883 5885 5886 5887 5889 5890 5891 5891 5891 5890 5889 5888 5888 5887 5887 5887 5886 5885 5885 5884 5884 5884 5884 5884 5884 5884 5883 5883 5884 5884 5885 5885 5886 5887 5887 5888 5889 5889 5889 5889 5890 5890 5890 5890 5891 5891
5872 5875 5878 5881 5883 5885 5886 5888 5890 5890 5891 5890 5889 5888 5888 5887 5887 5887 5886 5885 5885 5884 5884 5884 5884 5883 5883 5883 5883 5883 5883 5883 5883 5883 5884 5884 5885 5885 5886 5886 5887 5887 5887 5887 5886 5886 5887 5888 5888
5870 5873 5876 5880 5882 5883 5885 5887 5889 5890 5890 5890 5889 5888 5887 5887 5887 5887 5886 5886 5885 5885 5885 5885 5884 5883 5883 5882 5882 5882 5882 5882 5882 5882 5882 5882 5883 5883 5884 5884 5884 5884 5884 5884 5883 5883 5884 5884 5885
5868 5870 5874 5877 5880 5882 5883 5885 5887 5889 5890 5889 5888 5888 5887 5888 5887 5887 5887 5886 5886 5885 5885 5885 5884 5883 5882 5882 5881 5881 5881 5881 5881 5881 5881 5881 5881 5881 5881 5881 5881 5881 5881 5880 5880 5880 5881 5881 5882
5866 5868 5871 5875 5878 5880 5880 5883 5886 5888 5889 5888 5888 5887 5887 5888 5888 5888 5887 5887 5886 5885 5885 5884 5883 5883 5882 5881 5881 5881 5880 5880 5880 5880 5880 5879 5879 5879 5879 5879 5879 5878 5878 5878 5877 5877 5878 5878 5879
5864 5866 5869 5873 5875 5876 5878 5881 5884 5886 5887 5887 5887 5886 5887 5888 5889 5888 5888 5887 5886 5885 5885 5884 5883 5882 5882 5881 5881 5880 5880 5879 5879 5879 5879 5878 5878 5877 5877 5877 5876 5876 5876 5875 5874 5874 5874 5875 5875
5862 5865 5867 5870 5872 5874 5877 5880 5883 5884 5885 5885 5885 5886 5887 5888 5889 5888 5888 5887 5886 5885 5884 5883 5883 5882 5881 5880 5880 5879 5879 5878 5878 5878 5877 5877 5876 5876 5875 5874 5874 5873 5873 5872 5872 5871 5871 5871 5871
5860 5864 5865 5867 5869 5872 5875 5878 5880 5882 5883 5884 5884 5886 5887 5888 5888 5888 5887 5887 5886 5885 5884 5883 5882 5881 5880 5879 5879 5878 5878 5877 5877 5876 5876 5875 5874 5873 5873 5872 5871 5870 5870 5869 5869 5868 5868 5868 5868
5859 5861 5862 5864 5867 5870 5873 5876 5878 5880 5882 5882 5883 5885 5886 5886 5887 5887 5887 5886 5886 5885 5884 5883 5881 5880 5879 5878 5878 5877 5876 5876 5875 5874 5874 5873 5872 5871 5870 5869 5868 5868 5867 5866 5866 5865 5865 5865 5865
5857 5859 5859 5862 5864 5867 5871 5875 5877 5879 5880 5881 5882 5883 5884 5885 5886 5886 5886 5885 5885 5884 5883 5882 5881 5880 5878 5877 5876 5876 5875 5874 5873 5872 5871 5870 5869 5868 5868 5867 5866 5865 5865 5864 5863 5863 5863 5863 5862
5855 5856 5858 5860 5862 5865 5868 5872 5875 5877 5879 5880 5881 5882 5883 5884 5885 5885 5885 5885 5884 5883 5882 5881 5880 5879 5877 5876 5875 5874 5873 5872 5871 5870 5869 5868 5867 5866 5865 5864 5864 5863 5862 5861 5861 5860 5859 5859 5858
5853 5854 5856 5857 5860 5863 5866 5869 5872 5875 5877 5877 5878 5880 5881 5883 5884 5884 5884 5884 5883 5882 5881 5880 5879 5878 5876 5875 5874 5872 5871 5870 5868 5867 5866 5865 5864 5863 5862 5862 5861 5860 5859 5859 5858 5857 5856 5855 5854
5849 5850 5853 5855 5858 5861 5863 5866 5870 5873 5874 5875 5876 5878 5879 5881 5882 5882 5882 5882 5881 5880 5879 5878 5877 5876 5874 5873 5872 5870 5869 5867 5866 5864 5863 5862 5861 5860 5859 5858 5858 5857 5856 5855 5854 5853 5852 5850 5849
5845 5848 5851 5854 5856 5858 5861 5864 5867 5869 5870 5871 5873 5875 5876 5878 5879 5880 5879 5879 5878 5877 5877 5876 5874 5873 5871 5870 5869 5867 5865 5864 5862 5861 5860 5859 5857 5856 5855 5854 5853 5852 5851 5850 5849 5848 5847 5845 5844
5841 5845 5848 5851 5853 5855 5859 5862 5864 5865 5866 5867 5868 5870 5872 5874 5875 5876 5876 5876 5875 5874 5873 5872 5871 5870 5868 5866 5865 5863 5861 5859 5858 5856 5854 5853 5852 5851 5850 5849 5848 5846 5845 5844 5843 5842 5841 5839 5837
5838 5841 5844 5848 5849 5851 5854 5858 5860 5861 5862 5863 5864 5865 5867 5869 5871 5872 5872 5872 5872 5871 5870 5869 5867 5866 5864 5862 5860 5858 5856 5854 5851 5848 5847 5845 5844 5843 5843 5842 5841 5840 5839 5837 5836 5835 5834 5832 5830
5834 5837 5840 5843 5845 5847 5849 5853 5857 5856 5857 5858 5859 5860 5862 5864 5867 5868 5868 5868 5868 5867 5866 5865 5863 5861 5859 5857 5855 5852 5849 5846 5842 5838 5836 5835 5834 5834 5834 5833 5832 5832 5831 5830 5829 5827 5826 5824 5821
5829 5832 5835 5839 5841 5842 5844 5847 5851 5852 5852 5854 5855 5856 5857 5859 5861 5862 5863 5863 5863 5863 5862 5861 5859 5856 5854 5851 5848 5845 5841 5837 5833 5830 5827 5825 5825 5825 5825 5824 5824 5823 5822 5821 5820 5819 5817 5815 5813
5821 5825 5830 5835 5837 5837 5838 5840 5845 5847 5848 5849 5850 5851 5851 5853 5855 5856 5857 5857 5858 5858 5857 5855 5854 5851 5848 5845 5842 5837 5833 5830 5826 5822 5820 5818 5817 5817 5817 5816 5816 5815 5814 5813 5811 5810 5808 5806 5804
5814 5819 5824 5828 5829 5830 5831 5834 5838 5842 5843 5844 5845 5844 5845 5846 5848 5850 5851 5851 5852 5851 5851 5850 5848 5845 5843 5839 5835 5830 5825 5822 5819 5815 5813 5811 5810 5810 5809 5808 5808 5807 5806 5804 5802 5800 5798 5796 5794
5809 5813 5816 5818 5821 5822 5824 5825 5832 5835 5837 5838 5839 5838 5839 5840 5841 5843 5844 5845 5845 5845 5844 5843 5841 5839 5836 5832 5827 5821 5817 5814 5812 5809 5807 5806 5805 5804 5802 5801 5800 5798 5797 5795 5793 5791 5789 5786 5783
5803 5805 5807 5809 5812 5815 5817 5819 5825 5828 5830 5832 5832 5832 5832 5833 5835 5836 5837 5838 5838 5837 5836 5835 5834 5831 5827 5823 5819 5814 5810 5806 5804 5802 5801 5801 5799 5796 5794 5794 5793 5791 5789 5786 5784 5781 5778 5775 5772
5794 5797 5799 5802 5805 5810 5813 5815 5818 5821 5823 5825 5825 5825 5826 5827 5828 5829 5830 5830 5830 5830 5829 5827 5825 5823 5819 5814 5809 5804 5800 5798 5797 5796 5795 5795 5793 5790 5788 5787 5785 5783 5780 5777 5774 5771 5768 5764 5760
5788 5791 5794 5797 5800 5804 5808 5809 5812 5813 5815 5817 5818 5818 5819 5820 5821 5822 5823 5823 5823 5822 5821 5819 5817 5815 5811 5805 5800 5795 5792 5791 5791 5790 5788 5787 5786 5784 5782 5779 5777 5774 5771 5767 5764 5760 5756 5752 5747
5783 5787 5791 5793 5796 5799 5802 5803 5806 5807 5808 5809 5810 5811 5812 5813 5814 5815 5815 5815 5815 5814 5813 5811 5809 5807 5803 5798 5793 5790 5789 5786 5784 5783 5781 5780 5779 5776 5773 5771 5768 5764 5760 5756 5752 5748 5744 5739 5733
5779 5783 5786 5788 5790 5793 5795 5797 5799 5801 5802 5803 5805 5806 5807 5807 5808 5808 5808 5808 5808 5807 5806 5804 5802 5799 5796 5792 5789 5785 5782 5780 5778 5776 5774 5772 5769 5767 5764 5760 5757 5753 5749 5745 5740 5736 5731 5725 5719
5776 5778 5781 5782 5785 5787 5790 5792 5794 5795 5796 5798 5799 5800 5801 5802 5802 5802 5802 5801 5801 5799 5798 5796 5793 5791 5788 5785 5781 5778 5775 5773 5770 5768 5765 5763 5760 5756 5753 5750 5746 5741 5737 5732 5727 5722 5716 5710 5704
5770 5773 5775 5777 5780 5782 5785 5789 5789 5790 5791 5792 5793 5794 5795 5796 5796 5796 5795 5794 5793 5791 5789 5787 5784 5782 5779 5776 5773 5770 5767 5764 5761 5758 5755 5752 5749 5745 5742 5738 5733 5728 5723 5718 5713 5707 5701 5695 5688
5764 5766 5769 5773 5775 5777 5780 5785 5783 5784 5785 5786 5787 5788 5788 5788 5788 5788 5787 5786 5785 5783 5781 5778 5775 5772 5769 5766 5763 5760 5757 5754 5751 5748 5744 5741 5737 5733 5728 5724 5719 5714 5709 5703 5698 5692 5686 5679 5673